Previsão horária em Abella de la Conca

Hoje, 12 Abril, Segunda-feira

Tempo Temperatura Precipitação Vento Pressão Humidade
00:00 +1°C° 0 mm 2 m/s 654 mmHg 84%
01:00 +1°C° 0 mm 2 m/s 655 mmHg 83%
02:00 -1°C° 0 mm 2 m/s 655 mmHg 83%
03:00 -1°C° 0 mm 2 m/s 655 mmHg 82%
04:00 -2°C° 0 mm 2 m/s 655 mmHg 82%
05:00 -2°C° 0 mm 2 m/s 655 mmHg 82%
06:00 -2°C° 0 mm 2 m/s 656 mmHg 83%
07:00 +1°C° 0 mm 2 m/s 656 mmHg 71%
08:00 +3°C° 0 mm 2 m/s 657 mmHg 59%
09:00 +5°C° 0 mm 2 m/s 657 mmHg 47%
10:00 +7°C° 0 mm 2 m/s 657 mmHg 40%
11:00 +8°C° 0 mm 2 m/s 658 mmHg 34%
12:00 +10°C° 0 mm 2 m/s 658 mmHg 28%
13:00 +10°C° 0 mm 2 m/s 658 mmHg 28%
14:00 +11°C° 0 mm 3 m/s 657 mmHg 28%
15:00 +11°C° 0 mm 3 m/s 657 mmHg 28%
16:00 +9°C° 0 mm 3 m/s 657 mmHg 36%
17:00 +8°C° 0 mm 2 m/s 657 mmHg 44%
18:00 +6°C° 0 mm 2 m/s 657 mmHg 52%
19:00 +4°C° 0 mm 2 m/s 658 mmHg 59%
20:00 +2°C° 0 mm 2 m/s 658 mmHg 65%
21:00 +1°C° 0 mm 2 m/s 658 mmHg 72%
22:00 -1°C° 0 mm 2 m/s 658 mmHg 70%
23:00 -1°C° 0 mm 2 m/s 658 mmHg 68%

Amanhã, 13 Abril, Terça-feira

Tempo Temperatura Precipitação Vento Pressão Humidade
00:00 -1°C° 0 mm 2 m/s 658 mmHg 66%
01:00 -1°C° 0 mm 2 m/s 658 mmHg 62%
02:00 -1°C° 0 mm 2 m/s 658 mmHg 58%
03:00 -1°C° 0 mm 2 m/s 657 mmHg 54%
04:00 -1°C° 0 mm 2 m/s 657 mmHg 52%
05:00 +1°C° 0 mm 1 m/s 658 mmHg 50%
06:00 +2°C° 0 mm 1 m/s 658 mmHg 47%
07:00 +4°C° 0 mm 1 m/s 658 mmHg 43%
08:00 +6°C° 0 mm 1 m/s 659 mmHg 38%
09:00 +9°C° 0 mm 1 m/s 659 mmHg 33%
10:00 +10°C° 0 mm 1 m/s 659 mmHg 32%
11:00 +10°C° 0 mm 2 m/s 659 mmHg 31%
12:00 +12°C° 0 mm 2 m/s 659 mmHg 30%
13:00 +13°C° 0 mm 2 m/s 659 mmHg 31%
14:00 +13°C° 0 mm 2 m/s 658 mmHg 31%
15:00 +13°C° 0 mm 2 m/s 658 mmHg 32%
16:00 +12°C° 0 mm 2 m/s 657 mmHg 40%
17:00 +9°C° 0 mm 2 m/s 657 mmHg 47%
18:00 +9°C° 0 mm 1 m/s 657 mmHg 54%
19:00 +7°C° 0 mm 1 m/s 657 mmHg 59%
20:00 +6°C° 0 mm 1 m/s 657 mmHg 63%
21:00 +4°C° 0 mm 1 m/s 657 mmHg 68%
22:00 +4°C° 0 mm 1 m/s 657 mmHg 71%
23:00 +3°C° 0 mm 1 m/s 657 mmHg 73%

Depois de amanhã, 14 Abril, Quarta-feira

Tempo Temperatura Precipitação Vento Pressão Humidade
00:00 +3°C° 0 mm 1 m/s 657 mmHg 75%
01:00 +3°C° 0 mm 1 m/s 656 mmHg 76%
02:00 +2°C° 0 mm 1 m/s 656 mmHg 77%
03:00 +2°C° 0 mm 1 m/s 656 mmHg 78%
04:00 +2°C° 0 mm 1 m/s 656 mmHg 76%
05:00 +3°C° 0 mm 1 m/s 656 mmHg 75%
06:00 +3°C° 0 mm 1 m/s 656 mmHg 73%
07:00 +5°C° 0 mm 1 m/s 656 mmHg 65%
08:00 +8°C° 0 mm 1 m/s 656 mmHg 56%
09:00 +10°C° 0 mm 1 m/s 657 mmHg 48%
10:00 +12°C° 0 mm 2 m/s 657 mmHg 45%
11:00 +13°C° 0 mm 2 m/s 657 mmHg 42%
12:00 +14°C° 0 mm 2 m/s 656 mmHg 39%
13:00 +14°C° 0 mm 2 m/s 656 mmHg 42%
14:00 +12°C° 0 mm 3 m/s 656 mmHg 46%
15:00 +12°C° 0 mm 3 m/s 655 mmHg 49%
16:00 +10°C° 0.1 mm 2 m/s 655 mmHg 58%
17:00 +9°C° 0.1 mm 2 m/s 655 mmHg 67%
18:00 +8°C° 0.1 mm 2 m/s 655 mmHg 76%
19:00 +8°C° 0.1 mm 1 m/s 655 mmHg 80%
20:00 +7°C° 0.1 mm 1 m/s 655 mmHg 84%
21:00 +6°C° 0.1 mm 1 m/s 655 mmHg 87%
22:00 +6°C° 0.1 mm 1 m/s 655 mmHg 88%
23:00 +6°C° 0.1 mm 1 m/s 655 mmHg 89%

15 Abril, Quinta-feira

Tempo Temperatura Precipitação Vento Pressão Humidade
00:00 +6°C° 0.1 mm 1 m/s 655 mmHg 89%
01:00 +6°C° 0.1 mm 1 m/s 654 mmHg 89%
02:00 +6°C° 0.1 mm 1 m/s 654 mmHg 89%
03:00 +6°C° 0.1 mm 1 m/s 654 mmHg 89%
04:00 +6°C° 0.1 mm 1 m/s 654 mmHg 88%
05:00 +6°C° 0.1 mm 1 m/s 654 mmHg 88%
06:00 +5°C° 0.1 mm 0 m/s 654 mmHg 87%
07:00 +6°C° 0 mm 1 m/s 654 mmHg 83%
08:00 +7°C° 0 mm 1 m/s 654 mmHg 78%
09:00 +7°C° 0 mm 1 m/s 655 mmHg 74%
10:00 +9°C° 0 mm 1 m/s 654 mmHg 69%
11:00 +10°C° 0 mm 1 m/s 654 mmHg 64%
12:00 +10°C° 0 mm 2 m/s 654 mmHg 60%
13:00 +9°C° 0.1 mm 2 m/s 654 mmHg 61%
14:00 +9°C° 0.1 mm 2 m/s 654 mmHg 62%
15:00 +9°C° 0.1 mm 2 m/s 653 mmHg 63%
16:00 +9°C° 0.2 mm 1 m/s 653 mmHg 66%
17:00 +8°C° 0.2 mm 1 m/s 653 mmHg 69%
18:00 +7°C° 0.2 mm 1 m/s 653 mmHg 73%
19:00 +7°C° 0.2 mm 1 m/s 653 mmHg 74%
20:00 +6°C° 0.2 mm 1 m/s 653 mmHg 76%
21:00 +5°C° 0.2 mm 0 m/s 653 mmHg 77%
22:00 +5°C° 0.1 mm 0 m/s 653 mmHg 77%
23:00 +5°C° 0.1 mm 0 m/s 653 mmHg 77%

16 Abril, Sexta-feira

Tempo Temperatura Precipitação Vento Pressão Humidade
00:00 +4°C° 0.1 mm 0 m/s 653 mmHg 77%
01:00 +4°C° 0.1 mm 0 m/s 653 mmHg 79%
02:00 +4°C° 0.1 mm 0 m/s 652 mmHg 80%
03:00 +4°C° 0.1 mm 0 m/s 652 mmHg 81%
04:00 +4°C° 0.2 mm 0 m/s 652 mmHg 83%
05:00 +5°C° 0.2 mm 1 m/s 652 mmHg 86%
06:00 +4°C° 0.2 mm 1 m/s 652 mmHg 88%
07:00 +4°C° 0.4 mm 1 m/s 652 mmHg 87%
08:00 +4°C° 0.4 mm 1 m/s 652 mmHg 87%
09:00 +5°C° 0.4 mm 1 m/s 652 mmHg 86%
10:00 +4°C° 0.5 mm 1 m/s 652 mmHg 88%
11:00 +4°C° 0.5 mm 1 m/s 652 mmHg 89%
12:00 +4°C° 0.5 mm 1 m/s 652 mmHg 90%
13:00 +4°C° 0.4 mm 1 m/s 652 mmHg 89%
14:00 +5°C° 0.4 mm 1 m/s 651 mmHg 88%
15:00 +5°C° 0.4 mm 1 m/s 651 mmHg 86%
16:00 +5°C° 1.1 mm 1 m/s 651 mmHg 88%
17:00 +4°C° 1.1 mm 1 m/s 651 mmHg 89%
18:00 +4°C° 1.1 mm 1 m/s 651 mmHg 90%
19:00 +2°C° 1.4 mm 2 m/s 651 mmHg 92%
20:00 +2°C° 1.4 mm 2 m/s 651 mmHg 93%
21:00 +1°C° 1.4 mm 2 m/s 651 mmHg 95%
22:00 -1°C° 0.9 mm 2 m/s 650 mmHg 94%
23:00 -2°C° 0.9 mm 2 m/s 650 mmHg 92%

17 Abril, Sábado

Tempo Temperatura Precipitação Vento Pressão Humidade
00:00 -3°C° 0.9 mm 2 m/s 650 mmHg 91%
01:00 -3°C° 0.5 mm 2 m/s 650 mmHg 90%
02:00 -4°C° 0.5 mm 3 m/s 649 mmHg 89%
03:00 -4°C° 0.5 mm 3 m/s 649 mmHg 89%
04:00 -5°C° 0.2 mm 3 m/s 650 mmHg 88%
05:00 -5°C° 0.2 mm 3 m/s 650 mmHg 87%
06:00 -5°C° 0.2 mm 2 m/s 650 mmHg 86%
07:00 -3°C° 0.1 mm 2 m/s 650 mmHg 80%
08:00 -1°C° 0.1 mm 2 m/s 651 mmHg 73%
09:00 +1°C° 0.1 mm 2 m/s 651 mmHg 67%
10:00 +3°C° 0 mm 2 m/s 652 mmHg 63%
11:00 +5°C° 0 mm 2 m/s 652 mmHg 59%
12:00 +7°C° 0 mm 3 m/s 652 mmHg 55%
13:00 +7°C° 0 mm 3 m/s 652 mmHg 53%
14:00 +8°C° 0 mm 3 m/s 652 mmHg 52%
15:00 +8°C° 0 mm 3 m/s 653 mmHg 51%
16:00 +7°C° 0 mm 3 m/s 653 mmHg 56%
17:00 +6°C° 0 mm 2 m/s 653 mmHg 62%
18:00 +4°C° 0 mm 2 m/s 653 mmHg 68%
19:00 +3°C° 0 mm 2 m/s 654 mmHg 72%
20:00 0°C° 0 mm 3 m/s 654 mmHg 75%
21:00 -2°C° 0 mm 3 m/s 654 mmHg 79%
22:00 -2°C° 0 mm 3 m/s 654 mmHg 79%
23:00 -4°C° 0 mm 3 m/s 654 mmHg 79%
Mostrar mais